| time (UTC) | temp C | wind direction | speed KPH | gust KPH | rain 1hr cm | rain 24hr cm | rain mn cm | humidity % | barometer mb |
| 20260503193045 | 15 | 160 | 4.8 | 12.9 | 0.00 | 0.00 | 0.00 | 83 | 1013.6 |
| 20260503191544 | 15 | 130 | 3.2 | 11.3 | 0.00 | 0.00 | 0.00 | 83 | 1013.8 |
| 20260503190041 | 15 | 191 | 3.2 | 14.5 | 0.00 | 0.00 | 0.00 | 83 | 1013.7 |
| 20260503184538 | 15 | 192 | 4.8 | 12.9 | 0.00 | 0.00 | 0.00 | 81 | 1013.7 |
| 20260503183036 | 16 | 150 | 3.2 | 9.7 | 0.00 | 0.00 | 0.00 | 80 | 1013.6 |
| 20260503181535 | 16 | 162 | 1.6 | 8.0 | 0.00 | 0.00 | 0.00 | 81 | 1013.5 |
| 20260503180033 | 15 | 214 | 3.2 | 9.7 | 0.00 | 0.00 | 0.00 | 83 | 1013.5 |
| 20260503174530 | 15 | 197 | 0.0 | 6.4 | 0.00 | 0.00 | 0.00 | 84 | 1013.4 |
| 20260503173030 | 14 | 234 | 1.6 | 8.0 | 0.00 | 0.00 | 0.00 | 84 | 1013.6 |
| 20260503171527 | 14 | 181 | 0.0 | 8.0 | 0.00 | 0.00 | 0.00 | 84 | 1013.4 |
| 20260503110109 | 12 | 292 | 0.0 | 3.2 | 0.00 | 0.00 | 0.00 | 90 | 1011.0 |
| 20260503081538 | 13 | 69 | 0.0 | 0.0 | 0.00 | 0.00 | 0.00 | 85 | 1011.7 |
| 20260503071548 | 13 | 55 | 1.6 | 4.8 | 0.00 | 0.00 | 0.00 | 84 | 1011.6 |
| 20260503054535 | 13 | 153 | 0.0 | 0.0 | 0.00 | 0.00 | 0.00 | 85 | 1011.9 |
| 20260503053033 | 13 | 173 | 0.0 | 0.0 | 0.00 | 0.00 | 0.00 | 85 | 1012.0 |
| 20260503051529 | 13 | 173 | 0.0 | 0.0 | 0.00 | 0.00 | 0.00 | 85 | 1012.0 |
| 20260503050037 | 13 | 131 | 0.0 | 4.8 | 0.00 | 0.00 | 0.00 | 85 | 1012.0 |
| 20260503044531 | 13 | 134 | 0.0 | 3.2 | 0.00 | 0.00 | 0.00 | 85 | 1012.0 |
| 20260503043030 | 13 | 128 | 0.0 | 4.8 | 0.00 | 0.00 | 0.00 | 86 | 1011.7 |
| 20260503041535 | 13 | 282 | 0.0 | 0.0 | 0.00 | 0.00 | 0.00 | 86 | 1011.6 |
| 20260503040027 | 13 | 282 | 0.0 | 0.0 | 0.00 | 0.00 | 0.00 | 87 | 1011.3 |
| 20260503034527 | 12 | 286 | 0.0 | 0.0 | 0.00 | 0.00 | 0.00 | 86 | 1011.0 |
| 20260503033028 | 12 | 265 | 0.0 | 0.0 | 0.00 | 0.00 | 0.00 | 86 | 1010.8 |
| 20260503031526 | 12 | 264 | 0.0 | 3.2 | 0.00 | 0.00 | 0.00 | 85 | 1010.7 |
| 20260503030028 | 13 | 276 | 0.0 | 4.8 | 0.00 | 0.00 | 0.00 | 84 | 1010.6 |
| 20260503024524 | 13 | 291 | 1.6 | 6.4 | 0.00 | 0.00 | 0.00 | 83 | 1010.5 |
| 20260503023024 | 13 | 287 | 1.6 | 11.3 | 0.00 | 0.00 | 0.00 | 82 | 1010.4 |
| 20260503021525 | 13 | 284 | 0.0 | 8.0 | 0.00 | 0.00 | 0.00 | 82 | 1010.3 |
| 20260503020023 | 13 | 279 | 0.0 | 11.3 | 0.00 | 0.00 | 0.00 | 81 | 1010.4 |
| 20260503014521 | 14 | 282 | 1.6 | 16.1 | 0.00 | 0.00 | 0.00 | 81 | 1010.5 |
| 20260503013020 | 14 | 222 | 3.2 | 19.3 | 0.00 | 0.00 | 0.00 | 80 | 1010.6 |
| 20260503011521 | 15 | 242 | 4.8 | 14.5 | 0.00 | 0.00 | 0.00 | 79 | 1010.6 |
| 20260503010022 | 15 | 313 | 8.0 | 19.3 | 0.00 | 0.00 | 0.00 | 77 | 1010.7 |
| 20260503004518 | 15 | 247 | 4.8 | 17.7 | 0.00 | 0.00 | 0.00 | 77 | 1010.6 |
| 20260503003017 | 16 | 257 | 4.8 | 17.7 | 0.00 | 0.00 | 0.00 | 75 | 1010.7 |
| 20260503001515 | 16 | 214 | 3.2 | 17.7 | 0.00 | 0.00 | 0.00 | 75 | 1010.8 |
| 20260503000015 | 16 | 205 | 3.2 | 16.1 | 0.00 | 0.00 | 0.00 | 75 | 1011.0 |
| 20260502234520 | 16 | 250 | 4.8 | 17.7 | 0.00 | 0.00 | 0.00 | 75 | 1011.1 |
| 20260502233010 | 16 | 240 | 3.2 | 17.7 | 0.00 | 0.00 | 0.00 | 75 | 1011.3 |
| 20260502231510 | 16 | 298 | 6.4 | 19.3 | 0.00 | 0.00 | 0.00 | 75 | 1011.5 |
| 20260502230018 | 16 | 272 | 4.8 | 12.9 | 0.00 | 0.00 | 0.00 | 76 | 1011.7 |
| 20260502224506 | 16 | 229 | 6.4 | 16.1 | 0.00 | 0.00 | 0.00 | 76 | 1012.0 |
| 20260502223002 | 16 | 232 | 3.2 | 12.9 | 0.00 | 0.00 | 0.00 | 78 | 1012.3 |
| 20260502221603 | 16 | 229 | 4.8 | 9.7 | 0.00 | 0.00 | 0.00 | 77 | 1012.5 |
| 20260502220059 | 16 | 258 | 1.6 | 11.3 | 0.00 | 0.00 | 0.00 | 78 | 1012.8 |
| 20260502214556 | 16 | 238 | 1.6 | 14.5 | 0.00 | 0.00 | 0.00 | 79 | 1013.0 |
| 20260502213055 | 16 | 256 | 4.8 | 12.9 | 0.00 | 0.00 | 0.00 | 80 | 1013.1 |
| 20260502211553 | 16 | 232 | 3.2 | 12.9 | 0.00 | 0.00 | 0.00 | 82 | 1013.2 |
| 20260502210105 | 15 | 254 | 3.2 | 12.9 | 0.00 | 0.00 | 0.00 | 85 | 1013.3 |
| 20260502204554 | 15 | 211 | 3.2 | 11.3 | 0.00 | 0.00 | 0.00 | 85 | 1013.6 |
| 20260502203047 | 15 | 202 | 4.8 | 14.5 | 0.00 | 0.00 | 0.00 | 85 | 1013.9 |
| 20260502201551 | 15 | 230 | 1.6 | 11.3 | 0.00 | 0.00 | 0.00 | 87 | 1014.1 |
| 20260502200047 | 15 | 210 | 3.2 | 11.3 | 0.00 | 0.00 | 0.00 | 87 | 1014.4 |
| 20260502194542 | 14 | 240 | 3.2 | 12.9 | 0.00 | 0.00 | 0.00 | 87 | 1014.5 |